DW8722 Weather Reports


time (UTC)temp
C
wind
direction
speed
KPH
gust
KPH
rain 1hr
cm
rain 24hr
cm
rain mn
cm
humidity
%
barometer
mb
20260509090434 20 114 0.0 9.7 0.00 2.24 0.00 90 1008.4
20260509083146 20 102 6.4 12.9 0.00 2.24 0.00 91 1008.5
20260509082121 20 101 4.8 11.3 0.00 2.24 0.00 91 1008.7
20260509081117 20 93 3.2 11.3 0.00 2.24 0.00 91 1009.1
20260509080129 20 76 1.6 8.0 0.00 2.24 0.00 91 1009.3
20260509075111 20 89 3.2 8.0 0.00 2.24 0.00 91 1009.5
20260509074038 20 110 1.6 4.8 0.00 2.24 0.00 91 1009.8
20260509071939 20 66 1.6 8.0 0.00 2.24 0.00 91 1010.1
20260509070914 20 5 0.0 0.0 0.00 2.24 0.00 91 1010.4
20260509065857 20 0 0.0 0.0 0.00 2.24 0.00 91 1010.6
20260509064847 20 344 0.0 4.8 0.00 2.24 0.00 91 1010.6
20260509063900 20 35 3.2 6.4 0.00 2.24 0.00 91 1010.7
20260509062901 20 5 1.6 8.0 0.00 2.24 0.00 91 1010.6
20260509061919 20 58 3.2 8.0 0.00 2.24 0.00 91 1010.1
20260509060924 20 69 1.6 4.8 0.00 2.24 0.00 91 1009.8
20260509055910 20 123 0.0 4.8 0.00 2.24 0.00 91 1009.6
20260509054924 20 161 0.0 4.8 0.00 2.24 0.00 91 1009.9
20260509053909 20 169 0.0 4.8 0.00 2.24 0.00 91 1010.0
20260509052910 20 169 0.0 1.6 0.00 2.24 0.00 91 1010.1
20260509051909 20 189 0.0 0.0 0.00 2.24 0.00 91 1010.2
20260509024036 21 140 0.0 0.0 0.00 1.07 1.07 85 1009.9
20260509023012 21 140 0.0 0.0 0.00 1.07 1.07 84 1009.7
20260509022006 21 140 0.0 0.0 0.00 1.07 1.07 84 1009.3
20260509020956 21 140 0.0 0.0 0.00 1.07 1.07 82 1009.0
20260509015936 21 140 0.0 0.0 0.00 1.07 1.07 82 1008.9
20260509014902 21 141 0.0 0.0 0.00 1.07 1.07 81 1008.6
20260509013851 22 169 0.0 1.6 0.00 1.07 1.07 80 1008.5
20260509011737 22 169 1.6 6.4 0.00 1.07 1.07 78 1008.3
20260509010738 22 188 1.6 8.0 0.00 1.07 1.07 78 1008.2
20260509005740 22 171 1.6 8.0 0.00 1.07 1.07 78 1008.2
20260509004716 23 200 1.6 6.4 0.00 1.07 1.07 77 1008.2
20260509003647 23 194 3.2 17.7 0.00 1.07 1.07 77 1008.2
20260509002706 23 192 8.0 17.7 0.00 1.07 1.07 75 1007.9
20260509001711 23 196 8.0 14.5 0.00 1.07 1.07 74 1007.9
20260508235546 24 177 9.7 20.9 0.00 1.07 1.07 71 1007.9
20260508234512 24 161 11.3 20.9 0.00 1.07 1.07 70 1008.0
20260508233514 25 144 9.7 19.3 0.00 1.07 1.07 69 1007.9
20260508232526 25 182 11.3 17.7 0.00 1.07 1.07 68 1008.0
20260508231522 25 147 9.7 17.7 0.00 1.07 1.07 68 1008.2
20260508225411 25 157 11.3 19.3 0.00 1.07 1.07 68 1008.1
20260508224343 26 182 8.0 19.3 0.00 1.07 1.07 66 1008.1
20260508223309 26 184 9.7 19.3 0.00 1.07 1.07 67 1008.2
20260508222320 26 196 8.0 16.1 0.00 1.07 1.07 67 1008.1
20260508221307 26 162 8.0 20.9 0.00 1.07 1.07 67 1008.0
20260508220307 26 130 9.7 20.9 0.00 1.07 1.07 66 1008.0
20260508213036 26 185 11.3 22.5 0.00 1.07 1.07 66 1008.7
20260508210916 26 214 11.3 20.9 0.00 1.07 1.07 65 1009.0
20260508205916 26 168 9.7 24.1 0.00 1.07 1.07 66 1009.2
20260508204857 25 219 9.7 24.1 0.00 1.07 1.07 67 1009.5
20260508203840 25 158 11.3 19.3 0.00 1.07 1.07 65 1009.5
20260508202841 25 148 11.3 17.7 0.00 1.07 1.07 68 1009.8
20260508195624 23 136 4.8 14.5 0.00 1.07 1.07 70 1010.4
20260508193514 24 164 4.8 14.5 0.00 1.07 1.07 67 1010.4
20260508192443 24 107 6.4 12.9 0.00 1.07 1.07 66 1010.4
20260508191442 24 175 8.0 20.9 0.00 1.07 1.07 68 1010.4
20260508190457 24 192 9.7 20.9 0.00 1.07 1.07 66 1010.6
20260508184322 23 178 6.4 17.7 0.00 1.07 1.07 70 1010.7
20260508183338 23 134 6.4 17.7 0.00 1.07 1.07 72 1011.0
20260508182339 23 193 4.8 14.5 0.00 1.07 1.07 71 1011.2
20260508180242 22 171 3.2 16.1 0.00 1.07 1.07 77 1011.6
20260508175232 22 86 1.6 11.3 0.00 1.07 1.07 80 1012.0
20260508174212 21 186 0.0 4.8 0.00 1.07 1.07 80 1012.4
20260508173232 21 194 0.0 4.8 0.00 1.07 1.07 84 1012.5
20260508172208 20 172 3.2 6.4 0.00 1.07 1.07 84 1012.7
20260508171231 20 132 3.2 11.3 0.00 1.07 1.07 87 1013.1
20260508170215 20 168 3.2 9.7 0.00 1.07 1.07 89 1013.3
20260508165210 19 189 1.6 9.7 0.00 1.07 1.07 91 1013.5
20260508164216 18 134 0.0 1.6 0.00 1.07 1.07 91 1013.6
20260508163234 18 103 0.0 0.0 0.15 1.07 1.07 91 1013.7
20260508162221 17 130 0.0 4.8 0.00 0.99 1.02 90 1014.0
20260508161233 17 165 1.6 4.8 0.00 0.99 1.02 90 1014.1
20260508155113 17 156 4.8 11.3 0.00 0.99 1.02 90 1013.9
20260508154136 17 163 1.6 6.4 0.00 0.99 1.02 90 1014.0
20260508153124 17 124 1.6 4.8 0.15 0.99 1.02 89 1013.9
20260508152133 17 138 4.8 11.3 1.17 0.99 0.97 88 1013.9
20260508151103 18 148 3.2 12.9 0.00 0.91 0.94 90 1014.2
20260508150121 18 119 6.4 17.7 0.00 0.91 0.94 91 1014.0
20260508145047 17 159 6.4 17.7 0.00 0.91 0.94 91 1014.1
20260508142839 16 116 0.0 0.0 0.00 0.91 0.94 91 1014.4
20260508141822 16 127 0.0 0.0 0.00 0.91 0.94 91 1014.5
20260508140818 16 112 0.0 0.0 0.00 0.91 0.94 91 1014.8
20260508135841 16 101 0.0 0.0 0.00 0.91 0.94 91 1015.0
20260508134834 16 103 1.6 3.2 0.00 0.91 0.94 91 1014.6
20260508133803 15 180 0.0 0.0 0.00 0.91 0.94 91 1014.5
20260508132758 15 184 1.6 8.0 0.00 0.91 0.94 91 1014.9
20260508131740 15 115 4.8 14.5 0.00 0.91 0.94 91 1014.3
20260508130710 15 142 0.0 3.2 0.00 0.91 0.94 91 1014.7
20260508125659 15 203 0.0 0.0 0.00 0.91 0.94 91 1015.0
20260508124626 15 221 0.0 0.0 0.00 0.91 0.94 91 1015.2
20260508123609 15 221 0.0 0.0 0.00 0.91 0.94 91 1015.3
20260508122548 15 164 1.6 1.6 0.13 0.91 0.94 92 1015.0
20260508120420 15 178 3.2 0.0 1.88 0.74 0.79 92 1015.3
20260508115439 15 176 1.6 8.0 0.00 0.48 0.48 91 1014.8
20260508114502 15 120 1.6 9.7 0.00 0.48 0.48 91 1014.4
20260508113458 15 105 3.2 9.7 0.00 0.48 0.48 92 1014.3
20260508112520 15 134 4.8 9.7 0.00 0.48 0.48 92 1014.6
20260508110408 15 167 9.7 17.7 0.10 0.46 0.46 92 1013.9
20260508105403 14 131 4.8 11.3 0.30 0.46 0.46 91 1014.6
20260508104410 14 217 3.2 14.5 0.89 0.33 0.38 91 1015.7
20260508102315 13 42 0.0 0.0 0.00 0.00 0.00 92 1013.9
20260508101325 13 43 0.0 0.0 0.00 0.00 0.00 91 1013.6
20260508100342 13 43 0.0 0.0 0.00 0.00 0.00 91 1013.7
20260508095319 13 43 0.0 0.0 0.00 0.00 0.00 91 1014.0
20260508094334 13 48 0.0 0.0 0.00 0.00 0.00 91 1013.9
20260508093318 13 136 0.0 0.0 0.00 0.00 0.00 91 1013.8
20260508092251 14 140 0.0 0.0 0.00 0.00 0.00 91 1014.2
20260508091254 14 181 0.0 0.0 0.00 0.00 0.00 91 1014.5